| time (UTC) | temp F | wind direction | speed MPH | gust MPH | rain 1hr in | rain 24hr in | rain mn in | humidity % | barometer mb |
| 20260904160057 | 73 | 286 | 3.0 | 4.0 | 0.00 | 0.28 | 0.28 | 76 | |
| 20260904155556 | 71 | 238 | 2.0 | 3.0 | 0.00 | 0.28 | 0.28 | 80 | |
| 20260904155050 | 71 | 244 | 2.0 | 2.0 | 0.00 | 0.28 | 0.28 | 80 | |
| 20260904154544 | 71 | 206 | 0.0 | 3.0 | 0.00 | 0.28 | 0.28 | 79 | |
| 20260904154039 | 71 | 341 | 3.0 | 5.0 | 0.00 | 0.28 | 0.28 | 78 | |
| 20260904153538 | 72 | 315 | 2.0 | 5.0 | 0.00 | 0.28 | 0.28 | 79 | |
| 20260904153035 | 72 | 336 | 2.0 | 4.0 | 0.00 | 0.28 | 0.28 | 78 | |
| 20260904152530 | 72 | 347 | 3.0 | 6.0 | 0.00 | 0.28 | 0.28 | 79 | |
| 20260904152026 | 71 | 252 | 4.0 | 5.0 | 0.00 | 0.28 | 0.28 | 79 | |
| 20260904151520 | 71 | 254 | 3.0 | 6.0 | 0.00 | 0.28 | 0.28 | 81 | |
| 20260904151015 | 69 | 346 | 3.0 | 3.0 | 0.00 | 0.28 | 0.28 | 84 | |
| 20260904150515 | 70 | 269 | 2.0 | 7.0 | 0.00 | 0.28 | 0.28 | 84 | |
| 20260904150009 | 69 | 246 | 4.0 | 6.0 | 0.00 | 0.28 | 0.28 | 84 | |
| 20260904145504 | 70 | 257 | 1.0 | 8.0 | 0.00 | 0.28 | 0.28 | 82 | |
| 20260904144959 | 71 | 226 | 2.0 | 5.0 | 0.00 | 0.28 | 0.28 | 81 | |
| 20260904144455 | 70 | 309 | 2.0 | 5.0 | 0.00 | 0.28 | 0.28 | 82 | |
| 20260904143950 | 70 | 304 | 1.0 | 3.0 | 0.00 | 0.28 | 0.28 | 84 | |
| 20260904143447 | 71 | 299 | 2.0 | 3.0 | 0.00 | 0.28 | 0.28 | 82 | |
| 20260904142943 | 70 | 329 | 1.0 | 5.0 | 0.00 | 0.28 | 0.28 | 83 | |
| 20260904142439 | 68 | 357 | 3.0 | 5.0 | 0.00 | 0.28 | 0.28 | 85 | |
| 20260904141938 | 69 | 354 | 3.0 | 4.0 | 0.00 | 0.28 | 0.28 | 84 | |
| 20260904141433 | 69 | 305 | 2.0 | 4.0 | 0.00 | 0.28 | 0.28 | 84 | |
| 20260904140925 | 70 | 350 | 4.0 | 5.0 | 0.00 | 0.28 | 0.28 | 83 | |
| 20260904140425 | 69 | 306 | 2.0 | 4.0 | 0.00 | 0.28 | 0.28 | 84 | |
| 20260904135924 | 69 | 311 | 1.0 | 8.0 | 0.00 | 0.28 | 0.28 | 86 | |
| 20260904135423 | 69 | 323 | 2.0 | 3.0 | 0.00 | 0.28 | 0.28 | 85 | |
| 20260904134920 | 69 | 230 | 4.0 | 6.0 | 0.00 | 0.28 | 0.28 | 85 | |
| 20260904134420 | 68 | 325 | 2.0 | 4.0 | 0.00 | 0.28 | 0.28 | 87 | |
| 20260904133914 | 68 | 258 | 0.0 | 3.0 | 0.00 | 0.28 | 0.28 | 88 | |
| 20260904133414 | 68 | 349 | 2.0 | 3.0 | 0.00 | 0.28 | 0.28 | 87 | |
| 20260904132910 | 67 | 342 | 5.0 | 7.0 | 0.00 | 0.28 | 0.28 | 91 | |
| 20260904132405 | 66 | 35 | 1.0 | 4.0 | 0.00 | 0.28 | 0.28 | 93 | |
| 20260904131904 | 65 | 338 | 1.0 | 3.0 | 0.00 | 0.28 | 0.28 | 95 | |
| 20260904131359 | 65 | 0 | 1.0 | 2.0 | 0.00 | 0.28 | 0.28 | 96 | |
| 20260904130855 | 64 | 222 | 2.0 | 3.0 | 0.00 | 0.28 | 0.28 | 96 | |
| 20260904130354 | 64 | 233 | 0.0 | 5.0 | 0.00 | 0.28 | 0.28 | 96 | |
| 20260904125849 | 64 | 293 | 0.0 | 4.0 | 0.00 | 0.28 | 0.28 | 96 | |
| 20260904125346 | 64 | 262 | 4.0 | 6.0 | 0.00 | 0.28 | 0.28 | 96 | |
| 20260904124845 | 64 | 258 | 3.0 | 5.0 | 0.00 | 0.28 | 0.28 | 96 | |
| 20260904124342 | 64 | 347 | 0.0 | 4.0 | 0.00 | 0.28 | 0.28 | 96 | |
| 20260904123836 | 64 | 298 | 0.0 | 5.0 | 0.00 | 0.28 | 0.28 | 96 | |
| 20260904123331 | 64 | 60 | 3.0 | 4.0 | 0.00 | 0.28 | 0.28 | 96 | |
| 20260904122826 | 63 | 34 | 0.0 | 2.0 | 0.00 | 0.28 | 0.28 | 96 | |
| 20260904122321 | 63 | 252 | 0.0 | 2.0 | 0.00 | 0.28 | 0.28 | 96 | |
| 20260904121816 | 63 | 276 | 0.0 | 3.0 | 0.00 | 0.28 | 0.28 | 96 | |
| 20260904121312 | 63 | 309 | 2.0 | 3.0 | 0.00 | 0.28 | 0.28 | 96 | |
| 20260904120809 | 63 | 217 | 0.0 | 3.0 | 0.00 | 0.28 | 0.28 | 96 | |
| 20260904120304 | 63 | 112 | 0.0 | 1.0 | 0.00 | 0.28 | 0.28 | 96 | |
| 20260904115759 | 63 | 69 | 0.0 | 2.0 | 0.00 | 0.28 | 0.28 | 96 | |
| 20260904115254 | 63 | 142 | 0.0 | 1.0 | 0.00 | 0.28 | 0.28 | 96 | |
| 20260904114749 | 63 | 336 | 0.0 | 2.0 | 0.00 | 0.28 | 0.28 | 96 | |
| 20260904114248 | 63 | 113 | 0.0 | 2.0 | 0.00 | 0.28 | 0.28 | 96 | |
| 20260904113744 | 63 | 50 | 0.0 | 2.0 | 0.00 | 0.28 | 0.28 | 96 | |
| 20260904113243 | 63 | 50 | 0.0 | 2.0 | 0.00 | 0.28 | 0.28 | 96 | |
| 20260904112738 | 63 | 205 | 1.0 | 3.0 | 0.00 | 0.28 | 0.28 | 96 | |
| 20260904112233 | 63 | 192 | 0.0 | 2.0 | 0.00 | 0.28 | 0.28 | 96 | |
| 20260904111729 | 63 | 283 | 0.0 | 1.0 | 0.00 | 0.28 | 0.28 | 96 | |
| 20260904111225 | 63 | 129 | 0.0 | 3.0 | 0.00 | 0.28 | 0.28 | 96 | |
| 20260904110720 | 63 | 173 | 0.0 | 1.0 | 0.00 | 0.28 | 0.28 | 96 | |
| 20260904110219 | 63 | 55 | 0.0 | 1.0 | 0.00 | 0.28 | 0.28 | 96 | |
| 20260904105714 | 64 | 300 | 0.0 | 2.0 | 0.00 | 0.28 | 0.28 | 96 | |
| 20260904105209 | 64 | 211 | 0.0 | 2.0 | 0.00 | 0.28 | 0.28 | 96 | |
| 20260904104704 | 64 | 343 | 0.0 | 2.0 | 0.00 | 0.28 | 0.28 | 96 | |
| 20260904104200 | 64 | 282 | 2.0 | 4.0 | 0.00 | 0.28 | 0.28 | 96 | |
| 20260904103657 | 64 | 285 | 0.0 | 4.0 | 0.00 | 0.28 | 0.28 | 96 | |
| 20260904103151 | 64 | 273 | 2.0 | 3.0 | 0.00 | 0.28 | 0.28 | 96 | |
| 20260904102647 | 65 | 229 | 0.0 | 4.0 | 0.02 | 0.28 | 0.28 | 96 | |
| 20260904102142 | 65 | 246 | 0.0 | 3.0 | 0.02 | 0.28 | 0.28 | 96 | |
| 20260904101639 | 65 | 233 | 2.0 | 2.0 | 0.02 | 0.28 | 0.28 | 96 | |
| 20260904101134 | 65 | 223 | 2.0 | 2.0 | 0.00 | 0.27 | 0.27 | 96 | |
| 20260904100630 | 65 | 230 | 0.0 | 2.0 | 0.00 | 0.27 | 0.27 | 96 | |
| 20260904100125 | 65 | 327 | 1.0 | 4.0 | 0.00 | 0.27 | 0.27 | 96 | |
| 20260904095620 | 65 | 281 | 0.0 | 3.0 | 0.00 | 0.27 | 0.27 | 96 | |
| 20260904095120 | 65 | 230 | 0.0 | 0.0 | 0.00 | 0.27 | 0.27 | 96 | |
| 20260904094614 | 65 | 243 | 0.0 | 2.0 | 0.00 | 0.27 | 0.27 | 96 | |
| 20260904094109 | 65 | 44 | 0.0 | 1.0 | 0.00 | 0.27 | 0.27 | 96 | |
| 20260904093607 | 65 | 246 | 0.0 | 1.0 | 0.00 | 0.27 | 0.27 | 96 | |
| 20260904093101 | 65 | 269 | 0.0 | 2.0 | 0.00 | 0.27 | 0.27 | 96 | |
| 20260904092557 | 65 | 246 | 1.0 | 2.0 | 0.00 | 0.27 | 0.27 | 96 | |
| 20260904092053 | 64 | 147 | 0.0 | 2.0 | 0.00 | 0.27 | 0.27 | 96 | |
| 20260904091549 | 64 | 152 | 0.0 | 1.0 | 0.00 | 0.27 | 0.27 | 96 | |
| 20260904091048 | 64 | 185 | 0.0 | 1.0 | 0.00 | 0.27 | 0.27 | 96 | |
| 20260904090544 | 64 | 89 | 0.0 | 0.0 | 0.00 | 0.27 | 0.27 | 96 | |
| 20260904090040 | 64 | 87 | 1.0 | 1.0 | 0.00 | 0.27 | 0.27 | 96 | |
| 20260904085539 | 64 | 79 | 0.0 | 2.0 | 0.00 | 0.27 | 0.27 | 96 | |
| 20260904085034 | 64 | 102 | 0.0 | 2.0 | 0.00 | 0.27 | 0.27 | 96 | |
| 20260904084530 | 64 | 230 | 0.0 | 0.0 | 0.00 | 0.27 | 0.27 | 96 | |
| 20260904084026 | 64 | 217 | 0.0 | 0.0 | 0.00 | 0.27 | 0.27 | 96 | |
| 20260904083522 | 65 | 216 | 0.0 | 1.0 | 0.00 | 0.27 | 0.27 | 96 | |
| 20260904083017 | 65 | 132 | 0.0 | 1.0 | 0.00 | 0.27 | 0.27 | 96 | |
| 20260904082512 | 65 | 142 | 0.0 | 0.0 | 0.00 | 0.27 | 0.27 | 96 | |
| 20260904082007 | 65 | 230 | 0.0 | 1.0 | 0.00 | 0.27 | 0.27 | 96 | |
| 20260904081503 | 65 | 129 | 0.0 | 1.0 | 0.00 | 0.27 | 0.27 | 96 | |
| 20260904080958 | 65 | 140 | 0.0 | 2.0 | 0.00 | 0.27 | 0.27 | 96 | |
| 20260904080454 | 65 | 106 | 0.0 | 1.0 | 0.00 | 0.27 | 0.27 | 96 | |
| 20260904075949 | 65 | 215 | 0.0 | 1.0 | 0.00 | 0.27 | 0.27 | 96 | |
| 20260904075445 | 65 | 217 | 0.0 | 1.0 | 0.00 | 0.27 | 0.27 | 96 | |
| 20260904074944 | 65 | 37 | 0.0 | 0.0 | 0.00 | 0.27 | 0.27 | 96 | |
| 20260904074439 | 65 | 37 | 0.0 | 0.0 | 0.00 | 0.27 | 0.27 | 96 | |
| 20260904073934 | 66 | 37 | 0.0 | 0.0 | 0.00 | 0.27 | 0.27 | 96 | |
| 20260904073430 | 66 | 129 | 0.0 | 0.0 | 0.00 | 0.27 | 0.27 | 96 | |
| 20260904072925 | 66 | 157 | 0.0 | 0.0 | 0.00 | 0.27 | 0.27 | 96 | |
| 20260904072421 | 66 | 212 | 0.0 | 2.0 | 0.00 | 0.27 | 0.27 | 96 | |
| 20260904071916 | 66 | 217 | 0.0 | 0.0 | 0.00 | 0.27 | 0.27 | 96 | |
| 20260904071411 | 66 | 230 | 0.0 | 1.0 | 0.00 | 0.27 | 0.27 | 96 | |
| 20260904070906 | 66 | 269 | 0.0 | 0.0 | 0.00 | 0.27 | 0.27 | 96 | |
| 20260904070405 | 66 | 269 | 0.0 | 2.0 | 0.00 | 0.27 | 0.27 | 96 | |
| 20260904065905 | 67 | 247 | 2.0 | 2.0 | 0.00 | 0.27 | 0.27 | 96 | |
| 20260904065401 | 67 | 13 | 0.0 | 0.0 | 0.00 | 0.27 | 0.27 | 96 | |
| 20260904064901 | 67 | 13 | 0.0 | 0.0 | 0.00 | 0.27 | 0.27 | 96 | |
| 20260904064357 | 67 | 13 | 0.0 | 0.0 | 0.00 | 0.27 | 0.27 | 96 | |
| 20260904063852 | 67 | 13 | 0.0 | 0.0 | 0.00 | 0.27 | 0.27 | 96 | |
| 20260904063349 | 67 | 13 | 0.0 | 0.0 | 0.00 | 0.27 | 0.27 | 96 | |
| 20260904062844 | 67 | 13 | 0.0 | 0.0 | 0.00 | 0.27 | 0.27 | 96 | |
| 20260904062340 | 67 | 13 | 0.0 | 1.0 | 0.00 | 0.27 | 0.27 | 96 | |
| 20260904061835 | 67 | 22 | 0.0 | 2.0 | 0.00 | 0.27 | 0.27 | 96 | |
| 20260904061331 | 67 | 352 | 0.0 | 0.0 | 0.00 | 0.27 | 0.27 | 96 | |
| 20260904060827 | 67 | 339 | 0.0 | 2.0 | 0.00 | 0.27 | 0.27 | 96 | |
| 20260904060324 | 67 | 20 | 1.0 | 2.0 | 0.00 | 0.27 | 0.27 | 96 | |
| 20260904055818 | 67 | 13 | 0.0 | 1.0 | 0.00 | 0.27 | 0.27 | 96 | |
| 20260904055313 | 67 | 218 | 0.0 | 0.0 | 0.00 | 0.27 | 0.27 | 96 | |
| 20260904054809 | 67 | 218 | 0.0 | 2.0 | 0.00 | 0.27 | 0.27 | 96 | |
| 20260904054305 | 67 | 303 | 0.0 | 2.0 | 0.00 | 0.27 | 0.27 | 96 | |
| 20260904053759 | 67 | 0 | 1.0 | 1.0 | 0.00 | 0.27 | 0.27 | 96 | |
| 20260904053254 | 68 | 244 | 0.0 | 3.0 | 0.00 | 0.27 | 0.27 | 96 | |
| 20260904052750 | 68 | 322 | 0.0 | 3.0 | 0.00 | 0.27 | 0.27 | 96 | |
| 20260904052246 | 68 | 307 | 2.0 | 3.0 | 0.00 | 0.27 | 0.27 | 96 | |
| 20260904051742 | 68 | 12 | 0.0 | 2.0 | 0.00 | 0.27 | 0.27 | 96 | |
| 20260904051237 | 68 | 336 | 0.0 | 2.0 | 0.00 | 0.27 | 0.27 | 96 | |
| 20260904050732 | 68 | 344 | 0.0 | 2.0 | 0.00 | 0.27 | 0.27 | 96 | |
| 20260904050229 | 68 | 309 | 0.0 | 1.0 | 0.00 | 0.27 | 0.27 | 96 | |
| 20260904045729 | 68 | 217 | 0.0 | 2.0 | 0.00 | 0.27 | 0.27 | 96 | |
| 20260904045224 | 68 | 330 | 2.0 | 2.0 | 0.00 | 0.27 | 0.27 | 96 | |
| 20260904044718 | 69 | 153 | 0.0 | 3.0 | 0.00 | 0.27 | 0.27 | 96 | |
| 20260904044215 | 69 | 345 | 3.0 | 4.0 | 0.05 | 0.27 | 0.27 | 96 | |
| 20260904043711 | 69 | 325 | 1.0 | 2.0 | 0.05 | 0.27 | 0.27 | 96 | |
| 20260904043207 | 69 | 353 | 2.0 | 3.0 | 0.05 | 0.26 | 0.26 | 96 | |
| 20260904042703 | 69 | 309 | 0.0 | 3.0 | 0.14 | 0.26 | 0.26 | 96 | |
| 20260904042159 | 69 | 292 | 1.0 | 4.0 | 0.69 | 0.26 | 0.26 | 96 | |
| 20260904041653 | 69 | 197 | 2.0 | 3.0 | 0.59 | 0.24 | 0.24 | 96 | |
| 20260904041149 | 69 | 119 | 0.0 | 1.0 | 0.59 | 0.15 | 0.15 | 96 | |
| 20260904040645 | 69 | 89 | 0.0 | 2.0 | 0.76 | 0.11 | 0.11 | 96 | |
| 20260904040141 | 69 | 299 | 0.0 | 6.0 | 0.21 | 0.34 | 0.34 | 96 | |
| 20260904035636 | 69 | 315 | 0.0 | 1.0 | 0.35 | 0.33 | 0.33 | 96 | |
| 20260904035136 | 69 | 97 | 1.0 | 2.0 | 0.28 | 0.30 | 0.30 | 96 | |
| 20260904034636 | 69 | 255 | 3.0 | 4.0 | 0.14 | 0.27 | 0.27 | 96 | |
| 20260904034131 | 69 | 142 | 0.0 | 0.0 | 0.17 | 0.26 | 0.26 | 96 | |
| 20260904033627 | 69 | 142 | 0.0 | 0.0 | 0.21 | 0.24 | 0.24 | 96 | |
| 20260904033125 | 69 | 142 | 0.0 | 0.0 | 0.35 | 0.23 | 0.23 | 96 | |
| 20260904032620 | 69 | 142 | 0.0 | 0.0 | 0.26 | 0.21 | 0.21 | 96 | |
| 20260904032119 | 69 | 0 | 0.0 | 0.0 | 0.02 | 0.17 | 0.17 | 96 | |
| 20260904031618 | 69 | 89 | 0.0 | 1.0 | 0.05 | 0.17 | 0.17 | 96 | |
| 20260904031114 | 69 | 137 | 0.0 | 1.0 | 0.02 | 0.16 | 0.16 | 96 | |
| 20260904030610 | 69 | 129 | 0.0 | 1.0 | 0.05 | 0.16 | 0.16 | 96 | |
| 20260904030105 | 69 | 150 | 0.0 | 0.0 | 0.02 | 0.15 | 0.15 | 96 | |
| 20260904025601 | 69 | 150 | 0.0 | 0.0 | 0.00 | 0.15 | 0.15 | 96 | |
| 20260904025056 | 69 | 139 | 0.0 | 1.0 | 0.00 | 0.15 | 0.15 | 96 | |
| 20260904024551 | 69 | 15 | 0.0 | 0.0 | 0.00 | 0.15 | 0.15 | 96 | |
| 20260904024047 | 69 | 15 | 0.0 | 0.0 | 0.00 | 0.15 | 0.15 | 96 | |
| 20260904023543 | 69 | 15 | 1.0 | 2.0 | 0.00 | 0.15 | 0.15 | 96 | |
| 20260904023038 | 69 | 342 | 0.0 | 2.0 | 0.00 | 0.15 | 0.15 | 96 | |
| 20260904022533 | 69 | 6 | 0.0 | 1.0 | 0.00 | 0.15 | 0.15 | 96 | |
| 20260904022030 | 69 | 142 | 0.0 | 0.0 | 0.00 | 0.15 | 0.15 | 96 | |
| 20260904021525 | 70 | 142 | 0.0 | 0.0 | 0.00 | 0.15 | 0.15 | 96 | |
| 20260904021020 | 70 | 130 | 0.0 | 2.0 | 0.00 | 0.15 | 0.15 | 96 | |
| 20260904020520 | 70 | 233 | 0.0 | 0.0 | 0.00 | 0.15 | 0.15 | 96 | |
| 20260904020015 | 70 | 233 | 0.0 | 0.0 | 0.00 | 0.15 | 0.15 | 96 | |
| 20260904015510 | 70 | 230 | 0.0 | 0.0 | 0.00 | 0.15 | 0.15 | 96 | |
| 20260904015009 | 70 | 180 | 0.0 | 1.0 | 0.00 | 0.15 | 0.15 | 96 | |
| 20260904014503 | 70 | 119 | 0.0 | 0.0 | 0.00 | 0.15 | 0.15 | 96 | |
| 20260904013959 | 70 | 119 | 0.0 | 0.0 | 0.00 | 0.15 | 0.15 | 96 | |
| 20260904013455 | 69 | 126 | 0.0 | 1.0 | 0.00 | 0.15 | 0.15 | 96 | |
| 20260904012951 | 69 | 46 | 0.0 | 1.0 | 0.00 | 0.15 | 0.15 | 96 | |
| 20260904012450 | 69 | 13 | 0.0 | 1.0 | 0.00 | 0.15 | 0.15 | 96 | |
| 20260904011945 | 70 | 142 | 0.0 | 0.0 | 0.00 | 0.15 | 0.15 | 96 | |
| 20260904011440 | 70 | 142 | 0.0 | 0.0 | 0.00 | 0.15 | 0.15 | 96 | |
| 20260904010935 | 70 | 142 | 0.0 | 1.0 | 0.00 | 0.15 | 0.15 | 96 | |
| 20260904010431 | 70 | 343 | 0.0 | 0.0 | 0.00 | 0.15 | 0.15 | 96 | |
| 20260904005925 | 70 | 343 | 0.0 | 0.0 | 0.00 | 0.15 | 0.15 | 96 | |
| 20260904005416 | 70 | 13 | 0.0 | 1.0 | 0.00 | 0.15 | 0.15 | 96 | |
| 20260904004915 | 70 | 142 | 0.0 | 0.0 | 0.00 | 0.15 | 0.15 | 96 | |
| 20260904004413 | 70 | 142 | 0.0 | 0.0 | 0.00 | 0.15 | 0.15 | 96 | |
| 20260904003912 | 71 | 140 | 1.0 | 2.0 | 0.00 | 0.15 | 0.15 | 96 | |
| 20260904003403 | 71 | 137 | 0.0 | 1.0 | 0.00 | 0.15 | 0.15 | 96 | |
| 20260904002857 | 70 | 130 | 0.0 | 1.0 | 0.00 | 0.15 | 0.15 | 96 | |
| 20260904002354 | 71 | 121 | 1.0 | 1.0 | 0.00 | 0.15 | 0.15 | 96 | |
| 20260904001853 | 71 | 117 | 0.0 | 1.0 | 0.00 | 0.15 | 0.15 | 96 | |
| 20260904001349 | 71 | 235 | 0.0 | 0.0 | 0.00 | 0.15 | 0.15 | 96 | |
| 20260904000843 | 71 | 235 | 0.0 | 0.0 | 0.00 | 0.15 | 0.15 | 96 | |
| 20260904000343 | 71 | 229 | 0.0 | 2.0 | 0.00 | 0.15 | 0.15 | 96 | |
| 20260903235842 | 72 | 296 | 0.0 | 1.0 | 0.00 | 0.15 | 0.15 | 96 | |
| 20260903235339 | 72 | 322 | 0.0 | 1.0 | 0.00 | 0.15 | 0.15 | 96 | |
| 20260903234838 | 72 | 142 | 0.0 | 0.0 | 0.00 | 0.15 | 0.15 | 96 | |
| 20260903234334 | 72 | 142 | 0.0 | 0.0 | 0.00 | 0.15 | 0.15 | 96 | |
| 20260903233831 | 73 | 142 | 0.0 | 0.0 | 0.00 | 0.15 | 0.15 | 96 | |
| 20260903233326 | 73 | 142 | 0.0 | 1.0 | 0.00 | 0.15 | 0.15 | 96 | |
| 20260903232825 | 73 | 129 | 0.0 | 0.0 | 0.00 | 0.15 | 0.15 | 95 | |
| 20260903232321 | 73 | 129 | 0.0 | 0.0 | 0.00 | 0.15 | 0.15 | 94 | |
| 20260903231820 | 74 | 142 | 0.0 | 0.0 | 0.00 | 0.15 | 0.15 | 94 | |
| 20260903231316 | 74 | 142 | 0.0 | 1.0 | 0.00 | 0.15 | 0.15 | 93 | |
| 20260903230811 | 74 | 148 | 1.0 | 2.0 | 0.00 | 0.15 | 0.15 | 93 | |
| 20260903230306 | 75 | 154 | 0.0 | 0.0 | 0.00 | 0.15 | 0.15 | 93 | |
| 20260903225802 | 75 | 217 | 0.0 | 0.0 | 0.00 | 0.15 | 0.15 | 92 | |
| 20260903225258 | 76 | 217 | 0.0 | 0.0 | 0.00 | 0.15 | 0.15 | 92 | |
| 20260903224754 | 76 | 217 | 0.0 | 0.0 | 0.00 | 0.15 | 0.15 | 90 | |
| 20260903224250 | 77 | 217 | 0.0 | 0.0 | 0.00 | 0.15 | 0.15 | 89 | |
| 20260903223745 | 77 | 217 | 0.0 | 1.0 | 0.00 | 0.15 | 0.15 | 89 | |
| 20260903223243 | 77 | 242 | 0.0 | 1.0 | 0.00 | 0.15 | 0.15 | 89 | |
| 20260903222739 | 77 | 339 | 0.0 | 1.0 | 0.00 | 0.15 | 0.15 | 88 | |
| 20260903222238 | 78 | 154 | 0.0 | 2.0 | 0.00 | 0.15 | 0.15 | 86 | |
| 20260903221733 | 78 | 228 | 0.0 | 0.0 | 0.00 | 0.15 | 0.15 | 85 | |
| 20260903221232 | 78 | 228 | 0.0 | 0.0 | 0.00 | 0.15 | 0.15 | 86 | |
| 20260903220730 | 79 | 228 | 0.0 | 0.0 | 0.00 | 0.15 | 0.15 | 83 | |
| 20260903220225 | 79 | 228 | 0.0 | 0.0 | 0.00 | 0.15 | 0.15 | 82 | |
| 20260903215724 | 80 | 244 | 2.0 | 2.0 | 0.00 | 0.15 | 0.15 | 79 | |
| 20260903215220 | 80 | 229 | 0.0 | 1.0 | 0.00 | 0.15 | 0.15 | 81 | |
| 20260903214718 | 80 | 209 | 0.0 | 0.0 | 0.00 | 0.15 | 0.15 | 80 | |
| 20260903214214 | 81 | 288 | 0.0 | 1.0 | 0.00 | 0.15 | 0.15 | 78 | |
| 20260903213708 | 79 | 293 | 0.0 | 3.0 | 0.00 | 0.15 | 0.15 | 78 | |
| 20260903213204 | 79 | 263 | 3.0 | 6.0 | 0.00 | 0.15 | 0.15 | 77 | |
| 20260903212700 | 79 | 282 | 1.0 | 4.0 | 0.00 | 0.15 | 0.15 | 78 | |
| 20260903212156 | 79 | 310 | 1.0 | 7.0 | 0.00 | 0.15 | 0.15 | 79 | |
| 20260903211649 | 80 | 256 | 2.0 | 8.0 | 0.00 | 0.15 | 0.15 | 75 | |
| 20260903211146 | 81 | 252 | 6.0 | 7.0 | 0.00 | 0.15 | 0.15 | 74 | |
| 20260903210642 | 81 | 250 | 3.0 | 5.0 | 0.00 | 0.15 | 0.15 | 74 | |
| 20260903210137 | 81 | 271 | 2.0 | 4.0 | 0.00 | 0.15 | 0.15 | 75 | |
| 20260903205631 | 81 | 242 | 3.0 | 7.0 | 0.00 | 0.15 | 0.15 | 72 | |
| 20260903205130 | 81 | 103 | 0.0 | 3.0 | 0.00 | 0.15 | 0.15 | 76 | |
| 20260903204626 | 80 | 256 | 3.0 | 3.0 | 0.00 | 0.15 | 0.15 | 80 | |
| 20260903204122 | 80 | 309 | 0.0 | 1.0 | 0.00 | 0.15 | 0.15 | 77 | |
| 20260903203618 | 79 | 230 | 0.0 | 2.0 | 0.00 | 0.15 | 0.15 | 80 | |
| 20260903203112 | 78 | 258 | 3.0 | 3.0 | 0.00 | 0.15 | 0.15 | 79 | |
| 20260903202607 | 78 | 242 | 0.0 | 1.0 | 0.00 | 0.15 | 0.15 | 80 | |
| 20260903202102 | 78 | 330 | 1.0 | 5.0 | 0.00 | 0.15 | 0.15 | 80 | |
| 20260903201551 | 78 | 238 | 3.0 | 7.0 | 0.00 | 0.15 | 0.15 | 78 | |
| 20260903201050 | 78 | 288 | 0.0 | 3.0 | 0.00 | 0.15 | 0.15 | 81 | |
| 20260903200546 | 78 | 247 | 4.0 | 8.0 | 0.00 | 0.15 | 0.15 | 79 | |
| 20260903200041 | 78 | 239 | 6.0 | 8.0 | 0.00 | 0.15 | 0.15 | 79 | |
| 20260903195537 | 78 | 263 | 3.0 | 5.0 | 0.00 | 0.15 | 0.15 | 80 | 1014.2 |
| 20260903195032 | 78 | 291 | 1.0 | 4.0 | 0.00 | 0.15 | 0.15 | 79 | 1014.2 |
| 20260903194527 | 78 | 267 | 2.0 | 5.0 | 0.00 | 0.15 | 0.15 | 79 | 1014.2 |
| 20260903194022 | 79 | 326 | 0.0 | 6.0 | 0.00 | 0.15 | 0.15 | 78 | 1014.2 |
| 20260903193519 | 79 | 243 | 3.0 | 4.0 | 0.00 | 0.15 | 0.15 | 78 | 1014.2 |
| 20260903193014 | 79 | 248 | 0.0 | 4.0 | 0.00 | 0.15 | 0.15 | 78 | 1014.2 |
| 20260903192511 | 79 | 264 | 2.0 | 3.0 | 0.00 | 0.15 | 0.15 | 80 | 1014.2 |
| 20260903192010 | 79 | 250 | 4.0 | 5.0 | 0.00 | 0.15 | 0.15 | 78 | 1014.2 |
| 20260903191507 | 80 | 225 | 3.0 | 6.0 | 0.00 | 0.15 | 0.15 | 77 | 1014.2 |
| 20260903191001 | 79 | 235 | 2.0 | 3.0 | 0.00 | 0.15 | 0.15 | 81 | 1014.2 |
| 20260903190500 | 78 | 245 | 3.0 | 4.0 | 0.00 | 0.15 | 0.15 | 78 | 1014.2 |
| 20260903185954 | 78 | 238 | 4.0 | 7.0 | 0.00 | 0.15 | 0.15 | 79 | 1014.2 |
| 20260903185451 | 77 | 247 | 3.0 | 6.0 | 0.00 | 0.15 | 0.15 | 81 | 1014.6 |
| 20260903184950 | 78 | 255 | 8.0 | 8.0 | 0.00 | 0.15 | 0.15 | 80 | 1014.6 |
| 20260903184447 | 78 | 101 | 0.0 | 4.0 | 0.00 | 0.15 | 0.15 | 80 | 1014.6 |
| 20260903183942 | 78 | 239 | 2.0 | 7.0 | 0.00 | 0.15 | 0.15 | 79 | 1014.6 |
| 20260903183436 | 78 | 241 | 4.0 | 6.0 | 0.00 | 0.15 | 0.15 | 78 | 1014.6 |
| 20260903182936 | 79 | 144 | 2.0 | 9.0 | 0.00 | 0.15 | 0.15 | 77 | 1014.6 |
| 20260903182434 | 81 | 223 | 3.0 | 5.0 | 0.00 | 0.15 | 0.15 | 75 | 1014.6 |
| 20260903181930 | 79 | 250 | 2.0 | 6.0 | 0.00 | 0.15 | 0.15 | 78 | 1014.6 |
| 20260903181425 | 79 | 240 | 0.0 | 4.0 | 0.00 | 0.15 | 0.15 | 76 | 1014.6 |
| 20260903180924 | 78 | 207 | 1.0 | 3.0 | 0.00 | 0.15 | 0.15 | 80 | 1014.6 |
| 20260903180419 | 77 | 248 | 2.0 | 5.0 | 0.00 | 0.15 | 0.15 | 81 | 1014.4 |
| 20260903175919 | 77 | 280 | 1.0 | 5.0 | 0.00 | 0.15 | 0.15 | 83 | 1014.4 |
| 20260903175413 | 77 | 256 | 4.0 | 7.0 | 0.00 | 0.15 | 0.15 | 81 | 1014.4 |
| 20260903174907 | 77 | 308 | 2.0 | 7.0 | 0.00 | 0.15 | 0.15 | 80 | 1014.4 |
| 20260903174402 | 77 | 255 | 3.0 | 4.0 | 0.00 | 0.15 | 0.15 | 80 | 1014.3 |
| 20260903173857 | 77 | 251 | 4.0 | 7.0 | 0.00 | 0.15 | 0.15 | 80 | 1014.6 |
| 20260903173352 | 77 | 278 | 1.0 | 4.0 | 0.00 | 0.15 | 0.15 | 80 | 1014.1 |
| 20260903172848 | 76 | 257 | 3.0 | 4.0 | 0.00 | 0.15 | 0.15 | 82 | 1014.6 |
| 20260903172348 | 76 | 246 | 1.0 | 3.0 | 0.00 | 0.15 | 0.15 | 82 | 1014.4 |
| 20260903171843 | 76 | 242 | 3.0 | 6.0 | 0.00 | 0.15 | 0.15 | 81 | 1014.6 |
| 20260903171338 | 76 | 245 | 7.0 | 9.0 | 0.00 | 0.15 | 0.15 | 80 | 1014.4 |
| 20260903170838 | 77 | 216 | 3.0 | 4.0 | 0.00 | 0.15 | 0.15 | 81 | 1014.4 |
| 20260903170333 | 77 | 245 | 4.0 | 5.0 | 0.00 | 0.15 | 0.15 | 80 | 1014.4 |
| 20260903165831 | 77 | 249 | 2.0 | 5.0 | 0.00 | 0.15 | 0.15 | 82 | 1014.6 |
| 20260903165331 | 78 | 256 | 8.0 | 9.0 | 0.00 | 0.15 | 0.15 | 78 | 1014.6 |
| 20260903164826 | 78 | 238 | 2.0 | 6.0 | 0.00 | 0.15 | 0.15 | 79 | 1014.6 |
| 20260903164321 | 78 | 294 | 1.0 | 5.0 | 0.00 | 0.15 | 0.15 | 80 | 1014.6 |
| 20260903163820 | 77 | 292 | 3.0 | 5.0 | 0.00 | 0.15 | 0.15 | 82 | 1014.7 |
| 20260903163317 | 77 | 284 | 0.0 | 3.0 | 0.00 | 0.15 | 0.15 | 85 | 1014.3 |
| 20260903162813 | 77 | 239 | 3.0 | 8.0 | 0.00 | 0.15 | 0.15 | 82 | 1014.9 |
| 20260903162309 | 76 | 202 | 0.0 | 6.0 | 0.00 | 0.15 | 0.15 | 84 | 1014.7 |
| 20260903161804 | 76 | 269 | 1.0 | 7.0 | 0.00 | 0.15 | 0.15 | 85 | 1014.8 |
| 20260903161300 | 75 | 175 | 3.0 | 9.0 | 0.00 | 0.15 | 0.15 | 85 | 1015.0 |
| 20260903160755 | 75 | 243 | 4.0 | 6.0 | 0.00 | 0.15 | 0.15 | 84 | 1014.8 |